Find Starlink 11533

NORAD ID: 62836 Int'l Des: 2025-019 Owner: SPXS Country: US Constellation: starlink operational
又名: STARLINK-11533 [DTC] celestrak
LEOCIRCULAR

当前视图

正在加载3D地球...

About Starlink 11533

Starlink 11533 (NORAD 62836) is a starlink constellation satellite (v2 mini d2c) launched Jan 27, 2025 by SPXS of US. It operates in LEO, CIRCULAR orbit with a mass of 960.00 kg.

即将过境

Passes for default location (London). Set your location on the main map for personalized predictions.

高度历史

Loading altitude history...

两行轨道根数

1 62836U 25019H 26262.26113402 .00139859 00000-0 10740-2 0 9998
2 62836 43.0004 219.2734 0001801 258.3122 101.7544 15.70865634 94324
Epoch: Sep 19, 2026 • Age: 34 hours

当前状态

高度 358.2 km
远地点 / 近地点 N/A
速度 7.70 km/s
星下点 37.09°N, 23.49°E
发射日期 Jan 27, 2025
运行时间 1.6 years
类型 internet

技术详情

分类 Payload
质量 960.00 kg
干质量 910.00 kg
长度 0.30 m
跨度 29.00 m
形状 ? Box + pan
制造商 SPXS
平台类型 Starlink V2MD
阶段状态 In Orbit
所有者/国家 SPXS/US

Most Searched